Date String (YYYY-MM-DD hh:mm:ss) UTC,Instrument flags,Ambient pressure (hPa),Sample flow (lpm),Bypass flow (lpm),Sample temperature (°C),Ambient temperature (°C),ASC tube jacket temperature (°C),LED temperature (°C),Box temperature (°C),Sample RH (%),Span deviation,Mass concentration (μg/m³),Mass concentration (μg/m³),Mass concentration (μg/m³)
DateTimeUTC,F1_M11,P_M11,Q1_M11,Q2_M11,T1_M11,T2_M11,T3_M11,T4_M11,T5_M11,U1_M11,ZSPAN_M11,X2_M11,X0_M11,X1_M11
2023-04-10 02:00:00,,0836.2,4.99,0.00,29.3,27.6,00.0,37.8,30.8,07.8,0000.0,0004.02,0011.37,0002.14
2023-04-10 02:01:00,,0836.2,5.00,0.00,29.3,27.6,00.0,37.8,30.8,07.8,0000.0,0004.04,0011.38,0002.16
2023-04-10 02:02:00,,0836.2,5.01,0.00,29.3,27.6,00.0,37.7,30.8,07.8,0000.0,0004.04,0012.07,0002.19
2023-04-10 02:03:00,,0836.2,5.01,0.00,29.3,27.6,00.0,37.7,30.8,07.7,0000.0,0004.04,0012.27,0002.19
2023-04-10 02:04:00,,0836.2,5.00,0.00,29.3,27.6,00.0,37.7,30.8,07.6,0000.0,0004.09,0012.28,0002.20
2023-04-10 02:05:00,,0836.3,5.00,0.00,29.3,27.6,00.0,37.7,30.8,07.8,0000.0,0004.10,0012.18,0002.19
2023-04-10 02:06:00,,0836.3,5.00,0.00,29.3,27.6,00.0,37.7,30.8,07.8,0000.0,0004.11,0012.17,0002.19
2023-04-10 02:07:00,,0836.2,5.00,0.00,29.3,27.6,00.0,37.7,30.8,07.8,0000.0,0004.09,0011.68,0002.20
2023-04-10 02:08:00,,0836.2,5.00,0.00,29.2,27.6,00.0,37.7,30.7,07.8,0000.0,0004.10,0011.36,0002.21
2023-04-10 02:09:00,,0836.3,4.99,0.00,29.2,27.6,00.0,37.7,30.7,07.7,0000.0,0004.11,0011.29,0002.22
2023-04-10 02:10:00,,0836.2,4.99,0.00,29.3,27.6,00.0,37.7,30.7,07.7,0000.0,0004.19,0010.58,0002.25
2023-04-10 02:11:00,,0836.3,5.01,0.00,29.2,27.6,00.0,37.7,30.7,07.7,0000.0,0004.19,0010.89,0002.24
2023-04-10 02:12:00,,0836.2,5.00,0.00,29.2,27.6,00.0,37.7,30.7,07.5,0000.0,0004.19,0011.72,0002.23
2023-04-10 02:13:00,,0836.3,5.01,0.00,29.2,27.6,00.0,37.7,30.7,07.6,0000.0,0004.21,0011.12,0002.24
2023-04-10 02:14:00,,0836.3,5.00,0.00,29.2,27.6,00.0,37.7,30.7,07.6,0000.0,0004.16,0010.73,0002.23
2023-04-10 02:15:00,,0836.4,5.01,0.00,29.2,27.6,00.0,37.7,30.7,07.6,0000.0,0004.06,0010.45,0002.21
2023-04-10 02:16:00,,0836.4,5.02,0.00,29.2,27.6,00.0,37.6,30.7,07.5,0000.0,0004.03,0010.63,0002.22
2023-04-10 02:17:00,,0836.4,5.00,0.00,29.2,27.6,00.0,37.6,30.7,07.5,0000.0,0004.02,0010.61,0002.21
2023-04-10 02:18:00,,0836.4,4.99,0.00,29.2,27.6,00.0,37.6,30.7,07.5,0000.0,0004.03,0010.62,0002.20
2023-04-10 02:19:00,,0836.4,5.00,0.00,29.2,27.6,00.0,37.6,30.7,07.4,0000.0,0004.01,0010.81,0002.21
2023-04-10 02:20:00,,0836.4,4.99,0.00,29.2,27.5,00.0,37.6,30.7,07.4,0000.0,0003.97,0010.73,0002.19
2023-04-10 02:21:00,,0836.4,4.99,0.00,29.2,27.5,00.0,37.6,30.7,07.3,0000.0,0003.94,0010.60,0002.18
2023-04-10 02:22:00,,0836.4,5.02,0.00,29.2,27.5,00.0,37.6,30.6,07.3,0000.0,0003.94,0010.32,0002.20
2023-04-10 02:23:00,,0836.5,5.01,0.00,29.2,27.5,00.0,37.6,30.6,07.3,0000.0,0003.97,0009.85,0002.20
2023-04-10 02:24:00,,0836.5,5.01,0.00,29.2,27.5,00.0,37.6,30.6,07.3,0000.0,0003.98,0009.75,0002.17
2023-04-10 02:25:00,,0836.5,4.99,0.00,29.2,27.5,00.0,37.6,30.7,07.3,0000.0,0003.99,0009.78,0002.16
2023-04-10 02:26:00,,0836.5,4.99,0.00,29.2,27.5,00.0,37.6,30.6,07.2,0000.0,0004.09,0010.18,0002.18
2023-04-10 02:27:00,,0836.6,5.00,0.00,29.2,27.5,00.0,37.6,30.6,07.2,0000.0,0004.17,0010.68,0002.17
2023-04-10 02:28:00,,0836.7,5.01,0.00,29.1,27.5,00.0,37.6,30.6,07.2,0000.0,0004.21,0010.76,0002.19
2023-04-10 02:29:00,,0836.6,5.01,0.00,29.1,27.4,00.0,37.6,30.6,07.1,0000.0,0004.26,0011.11,0002.22
2023-04-10 02:30:00,,0836.6,5.01,0.00,29.1,27.4,00.0,37.6,30.6,07.0,0000.0,0004.42,0011.57,0002.27
2023-04-10 02:31:00,,0836.6,5.00,0.00,29.1,27.4,00.0,37.6,30.6,07.0,0000.0,0004.55,0011.92,0002.30
2023-04-10 02:32:00,,0836.6,4.99,0.00,29.1,27.4,00.0,37.5,30.6,07.0,0000.0,0004.61,0012.07,0002.30
2023-04-10 02:33:00,,0836.6,4.99,0.00,29.1,27.4,00.0,37.5,30.6,07.0,0000.0,0004.63,0012.18,0002.30
2023-04-10 02:34:00,,0836.6,5.01,0.00,29.1,27.4,00.0,37.5,30.5,06.9,0000.0,0004.65,0012.01,0002.31
2023-04-10 02:35:00,,0836.6,5.00,0.00,29.1,27.3,00.0,37.5,30.6,06.8,0000.0,0004.62,0011.59,0002.33
2023-04-10 02:36:00,,0836.7,5.01,0.00,29.1,27.3,00.0,37.5,30.5,06.7,0000.0,0004.63,0011.58,0002.34
2023-04-10 02:37:00,,0836.8,4.99,0.00,29.0,27.3,00.0,37.5,30.5,06.8,0000.0,0004.62,0011.42,0002.34
2023-04-10 02:38:00,,0836.8,4.98,0.00,29.0,27.3,00.0,37.5,30.5,06.8,0000.0,0004.58,0010.88,0002.34
2023-04-10 02:39:00,,0836.8,5.01,0.00,29.0,27.2,00.0,37.5,30.5,06.8,0000.0,0004.52,0010.70,0002.33
2023-04-10 02:40:00,,0836.8,5.01,0.00,29.0,27.2,00.0,37.5,30.5,06.8,0000.0,0004.49,0010.40,0002.31
2023-04-10 02:41:00,,0836.8,5.00,0.00,29.0,27.2,00.0,37.5,30.5,06.8,0000.0,0004.41,0010.03,0002.27
2023-04-10 02:42:00,,0836.8,5.00,0.00,29.0,27.2,00.0,37.4,30.5,06.8,0000.0,0004.34,0009.81,0002.27
2023-04-10 02:43:00,,0836.8,5.00,0.00,29.0,27.2,00.0,37.4,30.5,06.6,0000.0,0004.32,0009.79,0002.26
2023-04-10 02:44:00,,0836.9,5.00,0.00,29.0,27.2,00.0,37.4,30.4,06.7,0000.0,0004.33,0009.84,0002.27
2023-04-10 02:45:00,,0836.8,4.99,0.00,29.0,27.2,00.0,37.4,30.4,06.8,0000.0,0004.37,0009.97,0002.27
2023-04-10 02:46:00,,0836.9,5.01,0.00,29.0,27.2,00.0,37.4,30.4,06.8,0000.0,0004.37,0009.99,0002.25
2023-04-10 02:47:00,,0836.9,5.01,0.00,28.9,27.2,00.0,37.4,30.4,06.9,0000.0,0004.31,0009.88,0002.25
2023-04-10 02:48:00,,0836.9,5.00,0.00,28.9,27.2,00.0,37.4,30.4,06.9,0000.0,0004.29,0009.88,0002.25
2023-04-10 02:49:00,,0836.9,5.00,0.00,28.9,27.2,00.0,37.4,30.4,06.8,0000.0,0004.30,0009.95,0002.25
2023-04-10 02:50:00,,0837.0,4.99,0.00,28.9,27.2,00.0,37.4,30.4,06.6,0000.0,0004.40,0010.22,0002.27
2023-04-10 02:51:00,,0837.0,5.00,0.00,28.9,27.2,00.0,37.4,30.3,06.7,0000.0,0004.43,0010.32,0002.25
2023-04-10 02:52:00,,0837.0,4.99,0.00,28.9,27.2,00.0,37.3,30.3,06.6,0000.0,0004.41,0010.23,0002.24
2023-04-10 02:53:00,,0837.0,5.01,0.00,28.9,27.1,00.0,37.3,30.4,06.6,0000.0,0004.46,0010.61,0002.24
2023-04-10 02:54:00,,0836.9,5.00,0.00,28.9,27.1,00.0,37.3,30.3,06.6,0000.0,0004.48,0010.89,0002.26
2023-04-10 02:55:00,,0836.9,5.00,0.00,28.9,27.1,00.0,37.3,30.3,06.5,0000.0,0004.44,0010.79,0002.23
2023-04-10 02:56:00,,0837.0,5.01,0.00,28.9,27.1,00.0,37.3,30.3,06.6,0000.0,0004.40,0010.61,0002.23
2023-04-10 02:57:00,,0837.0,5.00,0.00,28.9,27.1,00.0,37.3,30.4,06.8,0000.0,0004.42,0010.69,0002.24
2023-04-10 02:58:00,,0837.1,5.00,0.00,28.9,27.1,00.0,37.3,30.3,06.8,0000.0,0004.47,0011.20,0002.22
2023-04-10 02:59:00,,0837.2,4.99,0.00,28.9,27.1,00.0,37.3,30.3,06.7,0000.0,0004.52,0011.50,0002.23
